• în Republica Moldova
  • Lista ţărilor
  • Pe 7 zile
  • Temperatura apei
  • Hartă satelitară
  • Meteo pe hartă
  • Widget-uri
  • user-avatar
    Intrare

    Meteo pe oră la Sydney

    Astăzi, 29 Mai, Luni

    Timp Temperatura Precipitaţii Vânt Presiune Umiditate
    00:00 +9°C° 0 mm 5 m/s 759 mmHg 75%
    01:00 +9°C° 0 mm 5 m/s 759 mmHg 74%
    02:00 +8°C° 0 mm 5 m/s 759 mmHg 74%
    03:00 +8°C° 0 mm 5 m/s 760 mmHg 75%
    04:00 +8°C° 0 mm 5 m/s 760 mmHg 75%
    05:00 +8°C° 0 mm 5 m/s 760 mmHg 74%
    06:00 +8°C° 0 mm 5 m/s 761 mmHg 74%
    07:00 +8°C° 0 mm 5 m/s 761 mmHg 74%
    08:00 +9°C° 0 mm 6 m/s 762 mmHg 64%
    09:00 +11°C° 0 mm 6 m/s 762 mmHg 53%
    10:00 +14°C° 0 mm 6 m/s 763 mmHg 42%
    11:00 +15°C° 0 mm 5 m/s 763 mmHg 39%
    12:00 +16°C° 0 mm 5 m/s 763 mmHg 35%
    13:00 +17°C° 0 mm 5 m/s 763 mmHg 31%
    14:00 +17°C° 0 mm 4 m/s 763 mmHg 36%
    15:00 +17°C° 0 mm 4 m/s 763 mmHg 40%
    16:00 +16°C° 0 mm 3 m/s 763 mmHg 45%
    17:00 +13°C° 0 mm 3 m/s 764 mmHg 49%
    18:00 +11°C° 0 mm 3 m/s 764 mmHg 54%
    19:00 +9°C° 0 mm 3 m/s 765 mmHg 59%
    20:00 +8°C° 0 mm 3 m/s 765 mmHg 62%
    21:00 +7°C° 0 mm 3 m/s 766 mmHg 64%
    22:00 +7°C° 0 mm 3 m/s 766 mmHg 67%
    23:00 +5°C° 0 mm 3 m/s 766 mmHg 70%

    Mâine, 30 Mai, Marţi

    Timp Temperatura Precipitaţii Vânt Presiune Umiditate
    00:00 +5°C° 0 mm 3 m/s 766 mmHg 73%
    01:00 +4°C° 0 mm 3 m/s 766 mmHg 76%
    02:00 +4°C° 0 mm 4 m/s 766 mmHg 77%
    03:00 +4°C° 0 mm 4 m/s 766 mmHg 78%
    04:00 +4°C° 0 mm 4 m/s 766 mmHg 79%
    05:00 +4°C° 0 mm 4 m/s 766 mmHg 80%
    06:00 +3°C° 0 mm 4 m/s 766 mmHg 82%
    07:00 +3°C° 0 mm 3 m/s 767 mmHg 83%
    08:00 +7°C° 0 mm 3 m/s 767 mmHg 73%
    09:00 +9°C° 0 mm 3 m/s 767 mmHg 62%
    10:00 +12°C° 0 mm 3 m/s 767 mmHg 52%
    11:00 +14°C° 0 mm 3 m/s 766 mmHg 47%
    12:00 +16°C° 0 mm 3 m/s 766 mmHg 43%
    13:00 +18°C° 0 mm 2 m/s 765 mmHg 38%
    14:00 +17°C° 0 mm 2 m/s 765 mmHg 45%
    15:00 +17°C° 0 mm 2 m/s 765 mmHg 51%
    16:00 +16°C° 0 mm 2 m/s 765 mmHg 58%
    17:00 +14°C° 0 mm 2 m/s 765 mmHg 61%
    18:00 +12°C° 0 mm 3 m/s 765 mmHg 64%
    19:00 +10°C° 0 mm 3 m/s 766 mmHg 67%
    20:00 +10°C° 0 mm 4 m/s 766 mmHg 70%
    21:00 +8°C° 0 mm 4 m/s 767 mmHg 73%
    22:00 +8°C° 0 mm 4 m/s 767 mmHg 75%
    23:00 +8°C° 0 mm 5 m/s 767 mmHg 75%

    Poimâine, 31 Mai, Miercuri

    Timp Temperatura Precipitaţii Vânt Presiune Umiditate
    00:00 +9°C° 0 mm 5 m/s 767 mmHg 74%
    01:00 +9°C° 0 mm 5 m/s 767 mmHg 74%
    02:00 +9°C° 0,4 mm 5 m/s 767 mmHg 77%
    03:00 +8°C° 0,4 mm 6 m/s 767 mmHg 81%
    04:00 +8°C° 0,4 mm 6 m/s 767 mmHg 84%
    05:00 +8°C° 0,8 mm 6 m/s 767 mmHg 87%
    06:00 +8°C° 0,8 mm 6 m/s 768 mmHg 89%
    07:00 +8°C° 0,8 mm 7 m/s 768 mmHg 91%
    08:00 +8°C° 0,3 mm 7 m/s 769 mmHg 85%
    09:00 +9°C° 0,3 mm 7 m/s 769 mmHg 79%
    10:00 +10°C° 0,3 mm 7 m/s 769 mmHg 73%
    11:00 +11°C° 0,1 mm 7 m/s 769 mmHg 65%
    12:00 +12°C° 0,1 mm 8 m/s 769 mmHg 57%
    13:00 +13°C° 0,1 mm 8 m/s 768 mmHg 49%
    14:00 +13°C° 0,2 mm 8 m/s 769 mmHg 52%
    15:00 +12°C° 0,2 mm 8 m/s 769 mmHg 54%
    16:00 +12°C° 0,2 mm 7 m/s 769 mmHg 57%
    17:00 +11°C° 0,2 mm 7 m/s 770 mmHg 61%
    18:00 +9°C° 0,2 mm 7 m/s 771 mmHg 65%
    19:00 +8°C° 0,2 mm 7 m/s 772 mmHg 69%
    20:00 +8°C° 0,2 mm 7 m/s 772 mmHg 68%
    21:00 +8°C° 0,2 mm 7 m/s 772 mmHg 67%
    22:00 +6°C° 0,2 mm 7 m/s 773 mmHg 66%
    23:00 +6°C° 0,2 mm 7 m/s 773 mmHg 67%

    1 Iunie, Joi

    Timp Temperatura Precipitaţii Vânt Presiune Umiditate
    00:00 +6°C° 0,2 mm 7 m/s 773 mmHg 68%
    01:00 +6°C° 0,2 mm 7 m/s 773 mmHg 68%
    02:00 +6°C° 0,2 mm 7 m/s 773 mmHg 69%
    03:00 +5°C° 0,2 mm 7 m/s 773 mmHg 70%
    04:00 +5°C° 0,2 mm 7 m/s 773 mmHg 71%
    05:00 +5°C° 0,1 mm 7 m/s 773 mmHg 71%
    06:00 +5°C° 0,1 mm 7 m/s 774 mmHg 72%
    07:00 +5°C° 0,1 mm 6 m/s 774 mmHg 73%
    08:00 +8°C° 0,1 mm 6 m/s 774 mmHg 69%
    09:00 +9°C° 0,1 mm 7 m/s 775 mmHg 64%
    10:00 +11°C° 0,1 mm 7 m/s 775 mmHg 59%
    11:00 +13°C° 0,1 mm 6 m/s 774 mmHg 57%
    12:00 +15°C° 0,1 mm 6 m/s 774 mmHg 54%
    13:00 +16°C° 0,1 mm 6 m/s 773 mmHg 52%
    14:00 +15°C° 0 mm 6 m/s 773 mmHg 55%
    15:00 +15°C° 0 mm 6 m/s 773 mmHg 58%
    16:00 +14°C° 0 mm 6 m/s 773 mmHg 61%
    17:00 +13°C° 0 mm 6 m/s 774 mmHg 67%
    18:00 +10°C° 0 mm 6 m/s 774 mmHg 73%
    19:00 +9°C° 0 mm 6 m/s 775 mmHg 80%
    20:00 +8°C° 0 mm 6 m/s 775 mmHg 81%
    21:00 +8°C° 0 mm 5 m/s 775 mmHg 81%
    22:00 +8°C° 0 mm 5 m/s 775 mmHg 82%
    23:00 +7°C° 0,1 mm 5 m/s 775 mmHg 82%

    2 Iunie, Vineri

    Timp Temperatura Precipitaţii Vânt Presiune Umiditate
    00:00 +7°C° 0,1 mm 5 m/s 775 mmHg 82%
    01:00 +7°C° 0,1 mm 5 m/s 774 mmHg 82%
    02:00 +7°C° 0,1 mm 6 m/s 774 mmHg 81%
    03:00 +7°C° 0,1 mm 6 m/s 774 mmHg 80%
    04:00 +7°C° 0,1 mm 6 m/s 774 mmHg 79%
    05:00 +5°C° 0,1 mm 6 m/s 774 mmHg 79%
    06:00 +5°C° 0,1 mm 6 m/s 775 mmHg 79%
    07:00 +5°C° 0,1 mm 6 m/s 775 mmHg 79%
    08:00 +8°C° 0,1 mm 6 m/s 775 mmHg 71%
    09:00 +10°C° 0,1 mm 6 m/s 775 mmHg 64%
    10:00 +14°C° 0,1 mm 6 m/s 775 mmHg 56%
    11:00 +15°C° 0 mm 6 m/s 774 mmHg 53%
    12:00 +16°C° 0 mm 5 m/s 774 mmHg 51%
    13:00 +17°C° 0 mm 5 m/s 773 mmHg 48%
    14:00 +16°C° 0 mm 5 m/s 773 mmHg 52%
    15:00 +16°C° 0 mm 5 m/s 773 mmHg 56%
    16:00 +15°C° 0 mm 5 m/s 773 mmHg 60%
    17:00 +13°C° 0 mm 5 m/s 773 mmHg 67%
    18:00 +12°C° 0 mm 5 m/s 774 mmHg 75%
    19:00 +9°C° 0 mm 5 m/s 774 mmHg 82%
    20:00 +9°C° 0 mm 5 m/s 774 mmHg 83%
    21:00 +8°C° 0 mm 5 m/s 774 mmHg 83%
    22:00 +8°C° 0 mm 5 m/s 774 mmHg 84%
    23:00 +8°C° 0 mm 5 m/s 774 mmHg 84%

    3 Iunie, Sâmbătă

    Timp Temperatura Precipitaţii Vânt Presiune Umiditate
    00:00 +8°C° 0 mm 5 m/s 774 mmHg 84%
    01:00 +7°C° 0 mm 5 m/s 774 mmHg 84%
    02:00 +7°C° 0,1 mm 5 m/s 774 mmHg 83%
    03:00 +7°C° 0,1 mm 5 m/s 773 mmHg 81%
    04:00 +7°C° 0,1 mm 5 m/s 773 mmHg 80%
    05:00 +7°C° 0,1 mm 5 m/s 773 mmHg 79%
    06:00 +6°C° 0,1 mm 5 m/s 774 mmHg 78%
    07:00 +6°C° 0,1 mm 5 m/s 774 mmHg 76%
    08:00 +8°C° 0 mm 5 m/s 774 mmHg 70%
    09:00 +12°C° 0 mm 5 m/s 774 mmHg 64%
    10:00 +14°C° 0 mm 5 m/s 774 mmHg 58%
    11:00 +15°C° 0 mm 5 m/s 773 mmHg 56%
    12:00 +16°C° 0 mm 5 m/s 772 mmHg 55%
    13:00 +17°C° 0 mm 5 m/s 772 mmHg 54%
    14:00 +16°C° 0 mm 5 m/s 772 mmHg 58%
    15:00 +16°C° 0 mm 5 m/s 772 mmHg 62%
    16:00 +15°C° 0 mm 5 m/s 771 mmHg 65%
    17:00 +13°C° 0 mm 5 m/s 772 mmHg 74%
    18:00 +10°C° 0 mm 5 m/s 772 mmHg 82%
    19:00 +8°C° 0 mm 4 m/s 772 mmHg 90%
    20:00 +8°C° 0 mm 4 m/s 772 mmHg 91%
    21:00 +8°C° 0 mm 4 m/s 772 mmHg 91%
    22:00 +8°C° 0 mm 4 m/s 772 mmHg 92%
    23:00 +8°C° 0 mm 4 m/s 772 mmHg 92%
    Arată mai mult